Year,Month,Day,Hour,Minute,Value (Times are PST for windspeed in km/hr)
2008,05,29,00,00,27.10
2008,05,29,00,01,26.20
2008,05,29,00,02,30.30
2008,05,29,00,03,28.90
2008,05,29,00,04,37.20
2008,05,29,00,05,26.10
2008,05,29,00,06,33.60
2008,05,29,00,07,32.40
2008,05,29,00,08,24.00
2008,05,29,00,09,27.20
2008,05,29,00,10,31.10
2008,05,29,00,11,26.30
2008,05,29,00,12,29.20
2008,05,29,00,13,24.00
2008,05,29,00,14,32.00
2008,05,29,00,15,26.70
2008,05,29,00,16,27.00
2008,05,29,00,17,27.40
2008,05,29,00,18,27.40
2008,05,29,00,19,24.00
2008,05,29,00,20,33.20
2008,05,29,00,21,24.00
2008,05,29,00,22,28.20
2008,05,29,00,23,28.10
2008,05,29,00,24,33.20
2008,05,29,00,25,34.70
2008,05,29,00,26,26.20
2008,05,29,00,27,26.60
2008,05,29,00,28,29.40
2008,05,29,00,29,30.80
2008,05,29,00,30,26.90
2008,05,29,00,31,24.50
2008,05,29,00,32,33.80
2008,05,29,00,33,31.80
2008,05,29,00,34,27.80
2008,05,29,00,35,38.30
2008,05,29,00,36,26.50
2008,05,29,00,37,26.80
2008,05,29,00,38,28.80
2008,05,29,00,39,22.80
2008,05,29,00,40,24.10
2008,05,29,00,41,23.70
2008,05,29,00,42,35.20
2008,05,29,00,43,30.90
2008,05,29,00,44,34.60
2008,05,29,00,45,20.60
2008,05,29,00,46,42.60
2008,05,29,00,47,27.90
2008,05,29,00,48,22.90
2008,05,29,00,49,25.60
2008,05,29,00,50,35.00
2008,05,29,00,51,28.50
2008,05,29,00,52,29.30
2008,05,29,00,53,31.20
2008,05,29,00,54,22.00
2008,05,29,00,55,18.80
2008,05,29,00,56,28.30
2008,05,29,00,57,30.10
2008,05,29,00,58,28.00
2008,05,29,00,59,27.40
2008,05,29,01,00,30.80
2008,05,29,01,01,29.90
2008,05,29,01,02,30.30
2008,05,29,01,03,28.00
2008,05,29,01,04,31.20
2008,05,29,01,05,33.50
2008,05,29,01,06,32.60
2008,05,29,01,07,26.20
2008,05,29,01,08,21.60
2008,05,29,01,09,26.80
2008,05,29,01,10,31.30
2008,05,29,01,11,28.70
2008,05,29,01,12,28.20
2008,05,29,01,13,24.10
2008,05,29,01,14,28.70
2008,05,29,01,15,33.10
2008,05,29,01,16,31.80
2008,05,29,01,17,24.10
2008,05,29,01,18,32.50
2008,05,29,01,19,36.30
2008,05,29,01,20,29.80
2008,05,29,01,21,21.80
2008,05,29,01,22,25.90
2008,05,29,01,23,31.30
2008,05,29,01,24,24.10
2008,05,29,01,25,22.60
2008,05,29,01,26,27.40
2008,05,29,01,27,34.90
2008,05,29,01,28,26.70
2008,05,29,01,29,33.30
2008,05,29,01,30,28.20
2008,05,29,01,31,30.60
2008,05,29,01,32,22.50
2008,05,29,01,33,24.90
2008,05,29,01,34,37.70
2008,05,29,01,35,27.50
2008,05,29,01,36,33.80
2008,05,29,01,37,31.30
2008,05,29,01,38,29.40
2008,05,29,01,39,30.30
2008,05,29,01,40,34.80
2008,05,29,01,41,21.90
2008,05,29,01,42,30.70
2008,05,29,01,43,26.00
2008,05,29,01,44,31.10
2008,05,29,01,45,33.10
2008,05,29,01,46,31.60
2008,05,29,01,47,27.30
2008,05,29,01,48,24.70
2008,05,29,01,49,25.30
2008,05,29,01,50,34.00
2008,05,29,01,51,33.10
2008,05,29,01,52,32.50
2008,05,29,01,53,33.90
2008,05,29,01,54,27.30
2008,05,29,01,55,31.90
2008,05,29,01,56,27.10
2008,05,29,01,57,23.70
2008,05,29,01,58,27.40
2008,05,29,01,59,28.80
2008,05,29,02,00,27.20
2008,05,29,02,01,29.00
2008,05,29,02,02,25.70
2008,05,29,02,03,20.40
2008,05,29,02,04,24.90
2008,05,29,02,05,25.50
2008,05,29,02,06,21.50
2008,05,29,02,07,12.60
2008,05,29,02,08,17.60
2008,05,29,02,09,9.20
2008,05,29,02,10,7.80
2008,05,29,02,11,15.00
2008,05,29,02,12,5.70
2008,05,29,02,13,6.60
2008,05,29,02,14,8.90
2008,05,29,02,15,10.50
2008,05,29,02,16,14.40
2008,05,29,02,17,3.10
2008,05,29,02,18,8.00
2008,05,29,02,19,15.40
2008,05,29,02,20,15.00
2008,05,29,02,21,9.70
2008,05,29,02,22,6.30
2008,05,29,02,23,8.70
2008,05,29,02,24,6.40
2008,05,29,02,25,4.90
2008,05,29,02,26,13.40
2008,05,29,02,27,8.50
2008,05,29,02,28,4.80
2008,05,29,02,29,4.80
2008,05,29,02,30,6.40
2008,05,29,02,31,11.20
2008,05,29,02,32,15.40
2008,05,29,02,33,7.20
2008,05,29,02,34,4.30
2008,05,29,02,35,3.90
2008,05,29,02,36,2.00
2008,05,29,02,37,2.60
2008,05,29,02,38,2.70
2008,05,29,02,39,4.60
2008,05,29,02,40,2.50
2008,05,29,02,41,0.20
2008,05,29,02,42,3.00
2008,05,29,02,43,1.40
2008,05,29,02,44,2.50
2008,05,29,02,45,4.70
2008,05,29,02,46,2.40
2008,05,29,02,47,5.00
2008,05,29,02,48,3.20
2008,05,29,02,49,6.80
2008,05,29,02,50,5.90
2008,05,29,02,51,3.10
2008,05,29,02,52,1.50
2008,05,29,02,53,0.70
2008,05,29,02,54,1.80
2008,05,29,02,55,4.10
2008,05,29,02,56,3.30
2008,05,29,02,57,7.80
2008,05,29,02,58,9.50
2008,05,29,02,59,6.80
2008,05,29,03,00,6.80
2008,05,29,03,01,13.00
2008,05,29,03,02,12.00
2008,05,29,03,03,7.70
2008,05,29,03,04,5.20
2008,05,29,03,05,4.70
2008,05,29,03,06,3.80
2008,05,29,03,07,2.10
2008,05,29,03,08,0.70
2008,05,29,03,09,3.10
2008,05,29,03,10,3.00
2008,05,29,03,11,4.70
2008,05,29,03,12,6.10
2008,05,29,03,13,5.40
2008,05,29,03,14,3.10
2008,05,29,03,15,5.60
2008,05,29,03,16,6.90
2008,05,29,03,17,3.40
2008,05,29,03,18,3.50
2008,05,29,03,19,3.90
2008,05,29,03,20,8.10
2008,05,29,03,21,6.20
2008,05,29,03,22,5.00
2008,05,29,03,23,5.50
2008,05,29,03,24,4.70
2008,05,29,03,25,3.90
2008,05,29,03,26,3.10
2008,05,29,03,27,6.50
2008,05,29,03,28,2.60
2008,05,29,03,29,2.20
2008,05,29,03,30,0.60
2008,05,29,03,31,1.90
2008,05,29,03,32,5.20
2008,05,29,03,33,1.00
2008,05,29,03,34,0.20
2008,05,29,03,35,0.00
2008,05,29,03,36,0.30
2008,05,29,03,37,0.00
2008,05,29,03,38,0.00
2008,05,29,03,39,0.00
2008,05,29,03,40,0.00
2008,05,29,03,41,0.00
2008,05,29,03,42,0.00
2008,05,29,03,43,0.00
2008,05,29,03,44,0.10
2008,05,29,03,45,0.00
2008,05,29,03,46,0.00
2008,05,29,03,47,0.00
2008,05,29,03,48,0.00
2008,05,29,03,49,0.00
2008,05,29,03,50,0.00
2008,05,29,03,51,0.00
2008,05,29,03,52,0.00
2008,05,29,03,53,0.00
2008,05,29,03,54,0.00
2008,05,29,03,55,0.00
2008,05,29,03,56,0.00
2008,05,29,03,57,0.90
2008,05,29,03,58,1.20
2008,05,29,03,59,0.40
2008,05,29,04,00,0.20
2008,05,29,04,01,0.00
2008,05,29,04,02,0.00
2008,05,29,04,03,0.00
2008,05,29,04,04,1.40
2008,05,29,04,05,0.00
2008,05,29,04,06,0.10
2008,05,29,04,07,1.50
2008,05,29,04,08,1.00
2008,05,29,04,09,2.30
2008,05,29,04,10,0.50
2008,05,29,04,11,0.00
2008,05,29,04,12,0.00
2008,05,29,04,13,1.20
2008,05,29,04,14,0.00
2008,05,29,04,15,0.20
2008,05,29,04,16,0.00
2008,05,29,04,17,0.20
2008,05,29,04,18,0.10
2008,05,29,04,19,2.60
2008,05,29,04,20,3.20
2008,05,29,04,21,1.90
2008,05,29,04,22,2.10
2008,05,29,04,23,1.40
2008,05,29,04,24,2.80
2008,05,29,04,25,0.40
2008,05,29,04,26,2.20
2008,05,29,04,27,0.60
2008,05,29,04,28,0.80
2008,05,29,04,29,0.40
2008,05,29,04,30,1.30
2008,05,29,04,31,0.80
2008,05,29,04,32,0.50
2008,05,29,04,33,0.80
2008,05,29,04,34,3.50
2008,05,29,04,35,1.30
2008,05,29,04,36,2.00
2008,05,29,04,37,2.50
2008,05,29,04,38,5.00
2008,05,29,04,39,2.40
2008,05,29,04,40,0.40
2008,05,29,04,41,3.80
2008,05,29,04,42,2.60
2008,05,29,04,43,0.70
2008,05,29,04,44,3.00
2008,05,29,04,45,3.10
2008,05,29,04,46,2.30
2008,05,29,04,47,3.20
2008,05,29,04,48,3.50
2008,05,29,04,49,6.10
2008,05,29,04,50,2.50
2008,05,29,04,51,1.80
2008,05,29,04,52,2.30
2008,05,29,04,53,2.40
2008,05,29,04,54,2.30
2008,05,29,04,55,1.90
2008,05,29,04,56,0.60
2008,05,29,04,57,4.10
2008,05,29,04,58,1.40
2008,05,29,04,59,0.00
2008,05,29,05,00,1.90
2008,05,29,05,01,5.10
2008,05,29,05,02,4.10
2008,05,29,05,03,5.30
2008,05,29,05,04,3.20
2008,05,29,05,05,2.60
2008,05,29,05,06,2.30
2008,05,29,05,07,4.30
2008,05,29,05,08,2.30
2008,05,29,05,09,4.10
2008,05,29,05,10,1.40
2008,05,29,05,11,6.80
2008,05,29,05,12,6.10
2008,05,29,05,13,9.90
2008,05,29,05,14,7.10
2008,05,29,05,15,4.80
2008,05,29,05,16,4.40
2008,05,29,05,17,5.30
2008,05,29,05,18,4.20
2008,05,29,05,19,4.70
2008,05,29,05,20,4.00
2008,05,29,05,21,3.00
2008,05,29,05,22,6.80
2008,05,29,05,23,4.70
2008,05,29,05,24,5.10
2008,05,29,05,25,5.30
2008,05,29,05,26,4.30
2008,05,29,05,27,6.40
2008,05,29,05,28,6.20
2008,05,29,05,29,7.40
2008,05,29,05,30,4.20
2008,05,29,05,31,4.30
2008,05,29,05,32,5.30
2008,05,29,05,33,5.60
2008,05,29,05,34,3.30
2008,05,29,05,35,3.70
2008,05,29,05,36,8.50
2008,05,29,05,37,5.20
2008,05,29,05,38,5.70
2008,05,29,05,39,4.80
2008,05,29,05,40,8.10
2008,05,29,05,41,7.10
2008,05,29,05,42,6.30
2008,05,29,05,43,5.20
2008,05,29,05,44,5.10
2008,05,29,05,45,2.10
2008,05,29,05,46,3.50
2008,05,29,05,47,2.50
2008,05,29,05,48,1.50
2008,05,29,05,49,3.50
2008,05,29,05,50,4.60
2008,05,29,05,51,3.40
2008,05,29,05,52,7.10
2008,05,29,05,53,5.50
2008,05,29,05,54,4.40
2008,05,29,05,55,3.20
2008,05,29,05,56,1.80
2008,05,29,05,57,4.20
2008,05,29,05,58,5.10
2008,05,29,05,59,5.20
2008,05,29,06,00,3.40
2008,05,29,06,01,4.70
2008,05,29,06,02,4.90
2008,05,29,06,03,4.40
2008,05,29,06,04,4.10
2008,05,29,06,05,5.80
2008,05,29,06,06,4.30
2008,05,29,06,07,5.20
2008,05,29,06,08,12.50
2008,05,29,06,09,7.20
2008,05,29,06,10,6.20
2008,05,29,06,11,9.60
2008,05,29,06,12,8.10
2008,05,29,06,13,10.30
2008,05,29,06,14,7.10
2008,05,29,06,15,17.10
2008,05,29,06,16,16.30
2008,05,29,06,17,16.70
2008,05,29,06,18,8.00
2008,05,29,06,19,8.30
2008,05,29,06,20,12.70
2008,05,29,06,21,14.10
2008,05,29,06,22,7.80
2008,05,29,06,23,4.90
2008,05,29,06,24,9.80
2008,05,29,06,25,6.40
2008,05,29,06,26,7.60
2008,05,29,06,27,5.30
2008,05,29,06,28,6.90
2008,05,29,06,29,7.30
2008,05,29,06,30,11.00
2008,05,29,06,31,8.00
2008,05,29,06,32,6.80
2008,05,29,06,33,12.60
2008,05,29,06,34,10.70
2008,05,29,06,35,12.30
2008,05,29,06,36,7.30
2008,05,29,06,37,7.20
2008,05,29,06,38,7.50
2008,05,29,06,39,6.30
2008,05,29,06,40,6.20
2008,05,29,06,41,7.50
2008,05,29,06,42,2.80
2008,05,29,06,43,7.20
2008,05,29,06,44,12.10
2008,05,29,06,45,10.10
2008,05,29,06,46,7.10
2008,05,29,06,47,7.70
2008,05,29,06,48,7.80
2008,05,29,06,49,4.80
2008,05,29,06,50,7.70
2008,05,29,06,51,8.50
2008,05,29,06,52,16.70
2008,05,29,06,53,13.10
2008,05,29,06,54,8.50
2008,05,29,06,55,10.90
2008,05,29,06,56,12.00
2008,05,29,06,57,9.60
2008,05,29,06,58,11.60
2008,05,29,06,59,9.40
2008,05,29,07,00,13.50
2008,05,29,07,01,15.70
2008,05,29,07,02,16.30
2008,05,29,07,03,11.20
2008,05,29,07,04,10.80
2008,05,29,07,05,4.10
2008,05,29,07,06,3.80
2008,05,29,07,07,8.90
2008,05,29,07,08,4.60
2008,05,29,07,09,5.60
2008,05,29,07,10,5.70
2008,05,29,07,11,6.30
2008,05,29,07,12,3.90
2008,05,29,07,13,7.30
2008,05,29,07,14,9.20
2008,05,29,07,15,6.30
2008,05,29,07,16,9.80
2008,05,29,07,17,7.70
2008,05,29,07,18,10.00
2008,05,29,07,19,6.20
2008,05,29,07,20,7.80
2008,05,29,07,21,8.80
2008,05,29,07,22,14.20
2008,05,29,07,23,9.90
2008,05,29,07,24,5.30
2008,05,29,07,25,4.20
2008,05,29,07,26,6.80
2008,05,29,07,27,8.40
2008,05,29,07,28,8.30
2008,05,29,07,29,4.70
2008,05,29,07,30,3.10
2008,05,29,07,31,4.40
2008,05,29,07,32,4.90
2008,05,29,07,33,6.00
2008,05,29,07,34,10.90
2008,05,29,07,35,6.20
2008,05,29,07,36,8.60
2008,05,29,07,37,7.20
2008,05,29,07,38,4.80
2008,05,29,07,39,14.50
2008,05,29,07,40,8.40
2008,05,29,07,41,12.80
2008,05,29,07,42,8.80
2008,05,29,07,43,8.40
2008,05,29,07,44,8.70
2008,05,29,07,45,8.10
2008,05,29,07,46,9.40
2008,05,29,07,47,9.50
2008,05,29,07,48,9.70
2008,05,29,07,49,10.90
2008,05,29,07,50,11.70
2008,05,29,07,51,14.60
2008,05,29,07,52,7.70
2008,05,29,07,53,8.60
2008,05,29,07,54,11.10
2008,05,29,07,55,7.10
2008,05,29,07,56,12.50
2008,05,29,07,57,16.80
2008,05,29,07,58,10.60
2008,05,29,07,59,5.50
2008,05,29,08,00,12.00
2008,05,29,08,01,9.30
2008,05,29,08,02,16.60
2008,05,29,08,03,18.10
2008,05,29,08,04,14.60
2008,05,29,08,05,9.70
2008,05,29,08,06,9.60
2008,05,29,08,07,12.50
2008,05,29,08,08,12.50
2008,05,29,08,09,9.20
2008,05,29,08,10,13.00
2008,05,29,08,11,8.80
2008,05,29,08,12,11.20
2008,05,29,08,13,15.00
2008,05,29,08,14,24.50
2008,05,29,08,15,15.10
2008,05,29,08,16,14.50
2008,05,29,08,17,13.20
2008,05,29,08,18,22.90
2008,05,29,08,19,21.80
2008,05,29,08,20,21.70
2008,05,29,08,21,17.50
2008,05,29,08,22,20.40
2008,05,29,08,23,16.70
2008,05,29,08,24,15.60
2008,05,29,08,25,18.90
2008,05,29,08,26,10.70
2008,05,29,08,27,12.40
2008,05,29,08,28,11.50
2008,05,29,08,29,12.40
2008,05,29,08,30,11.50
2008,05,29,08,31,18.50
2008,05,29,08,32,13.40
2008,05,29,08,33,16.40
2008,05,29,08,34,18.80
2008,05,29,08,35,19.60
2008,05,29,08,36,16.00
2008,05,29,08,37,19.10
2008,05,29,08,38,16.70
2008,05,29,08,39,13.40
2008,05,29,08,40,17.60
2008,05,29,08,41,12.80
2008,05,29,08,42,14.40
2008,05,29,08,43,14.70
2008,05,29,08,44,11.70
2008,05,29,08,45,8.60
2008,05,29,08,46,13.90
2008,05,29,08,47,10.70
2008,05,29,08,48,18.00
2008,05,29,08,49,16.90
2008,05,29,08,50,11.70
2008,05,29,08,51,13.20
2008,05,29,08,52,13.60
2008,05,29,08,53,15.00
2008,05,29,08,54,17.90
2008,05,29,08,55,15.40
2008,05,29,08,56,11.40
2008,05,29,08,57,14.20
2008,05,29,08,58,11.10
2008,05,29,08,59,13.60
2008,05,29,09,00,12.30
2008,05,29,09,01,8.30
2008,05,29,09,02,12.10
2008,05,29,09,03,6.80
2008,05,29,09,04,6.30
2008,05,29,09,05,12.30
2008,05,29,09,06,7.30
2008,05,29,09,07,8.80
2008,05,29,09,08,9.10
2008,05,29,09,09,8.70
2008,05,29,09,10,7.20
2008,05,29,09,11,11.50
2008,05,29,09,12,7.20
2008,05,29,09,13,2.20
2008,05,29,09,14,7.20
2008,05,29,09,15,8.50
2008,05,29,09,16,3.10
2008,05,29,09,17,4.90
2008,05,29,09,18,13.50
2008,05,29,09,19,10.40
2008,05,29,09,20,11.90
2008,05,29,09,21,9.40
2008,05,29,09,22,13.80
2008,05,29,09,23,15.00
2008,05,29,09,24,12.90
2008,05,29,09,25,6.60
2008,05,29,09,26,13.00
2008,05,29,09,27,14.20
2008,05,29,09,28,15.20
2008,05,29,09,29,10.60
2008,05,29,09,30,9.10
2008,05,29,09,31,8.90
2008,05,29,09,32,11.10
2008,05,29,09,33,14.80
2008,05,29,09,34,14.80
2008,05,29,09,35,10.70
2008,05,29,09,36,13.40
2008,05,29,09,37,19.70
2008,05,29,09,38,15.90
2008,05,29,09,39,15.10
2008,05,29,09,40,13.10
2008,05,29,09,41,12.20
2008,05,29,09,42,10.00
2008,05,29,09,43,14.20
2008,05,29,09,44,9.50
2008,05,29,09,45,7.40
2008,05,29,09,46,15.60
2008,05,29,09,47,15.80
2008,05,29,09,48,13.80
2008,05,29,09,49,11.00
2008,05,29,09,50,12.30
2008,05,29,09,51,12.20
2008,05,29,09,52,10.80
2008,05,29,09,53,12.20
2008,05,29,09,54,8.10
2008,05,29,09,55,10.50
2008,05,29,09,56,8.20
2008,05,29,09,57,6.40
2008,05,29,09,58,13.00
2008,05,29,09,59,14.60
2008,05,29,10,00,13.00
2008,05,29,10,01,8.90
2008,05,29,10,02,4.60
2008,05,29,10,03,4.40
2008,05,29,10,04,6.00
2008,05,29,10,05,11.50
2008,05,29,10,06,11.80
2008,05,29,10,07,13.30
2008,05,29,10,08,11.50
2008,05,29,10,09,4.20
2008,05,29,10,10,8.30
2008,05,29,10,11,5.80
2008,05,29,10,12,3.50
2008,05,29,10,13,6.80
2008,05,29,10,14,3.70
2008,05,29,10,15,10.90
2008,05,29,10,16,9.70
2008,05,29,10,17,14.50
2008,05,29,10,18,16.80
2008,05,29,10,19,11.70
2008,05,29,10,20,10.70
2008,05,29,10,21,10.00
2008,05,29,10,22,7.30
2008,05,29,10,23,4.20
2008,05,29,10,24,9.60
2008,05,29,10,25,9.50
2008,05,29,10,26,15.00
2008,05,29,10,27,12.10
2008,05,29,10,28,8.30
2008,05,29,10,29,3.40
2008,05,29,10,30,8.00
2008,05,29,10,31,16.30
2008,05,29,10,32,15.50
2008,05,29,10,33,16.00
2008,05,29,10,34,8.40
2008,05,29,10,35,11.60
2008,05,29,10,36,10.00
2008,05,29,10,37,10.10
2008,05,29,10,38,14.00
2008,05,29,10,39,10.10
2008,05,29,10,40,11.00
2008,05,29,10,41,7.90
2008,05,29,10,42,11.40
2008,05,29,10,43,12.00
2008,05,29,10,44,10.50
2008,05,29,10,45,17.70
2008,05,29,10,46,14.10
2008,05,29,10,47,10.80
2008,05,29,10,48,15.40
2008,05,29,10,49,14.90
2008,05,29,10,50,10.60
2008,05,29,10,51,11.70
2008,05,29,10,52,21.20
2008,05,29,10,53,18.70
2008,05,29,10,54,17.50
2008,05,29,10,55,16.80
2008,05,29,10,56,16.50
2008,05,29,10,57,13.00
2008,05,29,10,58,17.70
2008,05,29,10,59,16.50
2008,05,29,11,00,10.10
2008,05,29,11,01,15.00
2008,05,29,11,02,13.80
2008,05,29,11,03,8.90
2008,05,29,11,04,9.30
2008,05,29,11,05,15.30
2008,05,29,11,06,10.40
2008,05,29,11,07,14.80
2008,05,29,11,08,18.20
2008,05,29,11,09,20.00
2008,05,29,11,10,11.30
2008,05,29,11,11,18.70
2008,05,29,11,12,20.70
2008,05,29,11,13,15.20
2008,05,29,11,14,10.50
2008,05,29,11,15,12.30
2008,05,29,11,16,10.40
2008,05,29,11,17,10.80
2008,05,29,11,18,9.30
2008,05,29,11,19,15.70
2008,05,29,11,20,14.90
2008,05,29,11,21,14.80
2008,05,29,11,22,15.50
2008,05,29,11,23,13.40
2008,05,29,11,24,13.40
2008,05,29,11,25,12.60
2008,05,29,11,26,16.00
2008,05,29,11,27,15.00
2008,05,29,11,28,9.00
2008,05,29,11,29,9.30
2008,05,29,11,30,16.20
2008,05,29,11,31,15.30
2008,05,29,11,32,15.30
2008,05,29,11,33,17.60
2008,05,29,11,34,18.50
2008,05,29,11,35,17.90
2008,05,29,11,36,20.20
2008,05,29,11,37,9.00
2008,05,29,11,38,12.40
2008,05,29,11,39,14.30
2008,05,29,11,40,11.00
2008,05,29,11,41,15.00
2008,05,29,11,42,20.40
2008,05,29,11,43,14.70
2008,05,29,11,44,13.70
2008,05,29,11,45,9.90
2008,05,29,11,46,14.60
2008,05,29,11,47,15.80
2008,05,29,11,48,13.80
2008,05,29,11,49,15.20
2008,05,29,11,50,17.90
2008,05,29,11,51,16.10
2008,05,29,11,52,18.70
2008,05,29,11,53,16.40
2008,05,29,11,54,20.80
2008,05,29,11,55,18.90
2008,05,29,11,56,11.70
2008,05,29,11,57,10.50
2008,05,29,11,58,20.40
2008,05,29,11,59,18.60
2008,05,29,12,00,13.90
2008,05,29,12,01,18.20
2008,05,29,12,02,12.60
2008,05,29,12,03,16.70
2008,05,29,12,04,16.40
2008,05,29,12,05,12.80
2008,05,29,12,06,21.10
2008,05,29,12,07,18.60
2008,05,29,12,08,13.80
2008,05,29,12,09,23.50
2008,05,29,12,10,15.20
2008,05,29,12,11,16.40
2008,05,29,12,12,15.20
2008,05,29,12,13,10.20
2008,05,29,12,14,7.50
2008,05,29,12,15,12.20
2008,05,29,12,16,13.80
2008,05,29,12,17,7.20
2008,05,29,12,18,11.70
2008,05,29,12,19,18.60
2008,05,29,12,20,21.20
2008,05,29,12,21,11.30
2008,05,29,12,22,13.00
2008,05,29,12,23,20.90
2008,05,29,12,24,18.10
2008,05,29,12,25,17.50
2008,05,29,12,26,16.80
2008,05,29,12,27,7.20
2008,05,29,12,28,8.30
2008,05,29,12,29,11.40
2008,05,29,12,30,7.30
2008,05,29,12,31,13.40
2008,05,29,12,32,16.30
2008,05,29,12,33,10.80
2008,05,29,12,34,14.30
2008,05,29,12,35,6.80
2008,05,29,12,36,7.30
2008,05,29,12,37,16.30
2008,05,29,12,38,15.80
2008,05,29,12,39,14.60
2008,05,29,12,40,17.10
2008,05,29,12,41,18.80
2008,05,29,12,42,18.20
2008,05,29,12,43,16.30
2008,05,29,12,44,19.40
2008,05,29,12,45,20.50
2008,05,29,12,46,16.10
2008,05,29,12,47,18.70
2008,05,29,12,48,14.60
2008,05,29,12,49,17.10
2008,05,29,12,50,19.50
2008,05,29,12,51,15.70
2008,05,29,12,52,16.90
2008,05,29,12,53,19.80
2008,05,29,12,54,22.30
2008,05,29,12,55,20.30
2008,05,29,12,56,14.50
2008,05,29,12,57,9.50
2008,05,29,12,58,17.70
2008,05,29,12,59,11.90
2008,05,29,13,00,10.60
2008,05,29,13,01,9.70
2008,05,29,13,02,15.40
2008,05,29,13,03,13.70
2008,05,29,13,04,13.90
2008,05,29,13,05,16.10
2008,05,29,13,06,9.70
2008,05,29,13,07,3.90
2008,05,29,13,08,7.70
2008,05,29,13,09,9.30
2008,05,29,13,10,11.00
2008,05,29,13,11,7.40
2008,05,29,13,12,9.70
2008,05,29,13,13,19.10
2008,05,29,13,14,11.70
2008,05,29,13,15,8.40
2008,05,29,13,16,6.80
2008,05,29,13,17,11.30
2008,05,29,13,18,9.00
2008,05,29,13,19,18.50
2008,05,29,13,20,15.50
2008,05,29,13,21,8.80
2008,05,29,13,22,11.70
2008,05,29,13,23,17.10
2008,05,29,13,24,16.10
2008,05,29,13,25,12.20
2008,05,29,13,26,11.90
2008,05,29,13,27,13.60
2008,05,29,13,28,16.20
2008,05,29,13,29,17.80
2008,05,29,13,30,11.90
2008,05,29,13,31,7.70
2008,05,29,13,32,11.00
2008,05,29,13,33,10.30
2008,05,29,13,34,10.40
2008,05,29,13,35,12.70
2008,05,29,13,36,15.40
2008,05,29,13,37,15.20
2008,05,29,13,38,18.80
2008,05,29,13,39,18.30
2008,05,29,13,40,18.50
2008,05,29,13,41,22.00
2008,05,29,13,42,17.90
2008,05,29,13,43,18.60
2008,05,29,13,44,15.00
2008,05,29,13,45,12.50
2008,05,29,13,46,9.80
2008,05,29,13,47,10.00
2008,05,29,13,48,10.60
2008,05,29,13,49,13.20
2008,05,29,13,50,16.40
2008,05,29,13,51,14.80
2008,05,29,13,52,15.00
2008,05,29,13,53,9.30
2008,05,29,13,54,11.90
2008,05,29,13,55,17.80
2008,05,29,13,56,18.10
2008,05,29,13,57,12.60
2008,05,29,13,58,8.00
2008,05,29,13,59,11.30
2008,05,29,14,00,5.00
2008,05,29,14,01,7.30
2008,05,29,14,02,10.00
2008,05,29,14,03,17.80
2008,05,29,14,04,13.80
2008,05,29,14,05,8.70
2008,05,29,14,06,13.10
2008,05,29,14,07,16.60
2008,05,29,14,08,20.70
2008,05,29,14,09,13.50
2008,05,29,14,10,16.40
2008,05,29,14,11,19.10
2008,05,29,14,12,21.30
2008,05,29,14,13,12.50
2008,05,29,14,14,12.70
2008,05,29,14,15,22.00
2008,05,29,14,16,19.70
2008,05,29,14,17,20.20
2008,05,29,14,18,12.60
2008,05,29,14,19,12.50
2008,05,29,14,20,16.60
2008,05,29,14,21,7.20
2008,05,29,14,22,10.40
2008,05,29,14,23,16.60
2008,05,29,14,24,22.60
2008,05,29,14,25,18.80
2008,05,29,14,26,20.40
2008,05,29,14,27,18.20
2008,05,29,14,28,20.00
2008,05,29,14,29,15.80
2008,05,29,14,30,15.40
2008,05,29,14,31,8.90
2008,05,29,14,32,15.70
2008,05,29,14,33,12.70
2008,05,29,14,34,10.90
2008,05,29,14,35,13.40
2008,05,29,14,36,18.80
2008,05,29,14,37,22.00
2008,05,29,14,38,22.50
2008,05,29,14,39,17.40
2008,05,29,14,40,19.80
2008,05,29,14,41,18.10
2008,05,29,14,42,19.00
2008,05,29,14,43,17.60
2008,05,29,14,44,18.00
2008,05,29,14,45,24.60
2008,05,29,14,46,17.50
2008,05,29,14,47,19.10
2008,05,29,14,48,12.00
2008,05,29,14,49,15.40
2008,05,29,14,50,20.40
2008,05,29,14,51,16.70
2008,05,29,14,52,13.20
2008,05,29,14,53,20.30
2008,05,29,14,54,15.40
2008,05,29,14,55,18.10
2008,05,29,14,56,15.70
2008,05,29,14,57,19.20
2008,05,29,14,58,20.30
2008,05,29,14,59,13.90
2008,05,29,15,00,14.70
2008,05,29,15,01,8.70
2008,05,29,15,02,16.60
2008,05,29,15,03,21.80
2008,05,29,15,04,11.10
2008,05,29,15,05,16.90
2008,05,29,15,06,20.00
2008,05,29,15,07,12.20
2008,05,29,15,08,13.90
2008,05,29,15,09,10.10
2008,05,29,15,10,19.80
2008,05,29,15,11,16.00
2008,05,29,15,12,17.40
2008,05,29,15,13,22.40
2008,05,29,15,14,20.10
2008,05,29,15,15,15.50
2008,05,29,15,16,10.40
2008,05,29,15,17,9.30
2008,05,29,15,18,13.30
2008,05,29,15,19,10.10
2008,05,29,15,20,18.50
2008,05,29,15,21,19.40
2008,05,29,15,22,15.10
2008,05,29,15,23,17.10
2008,05,29,15,24,22.60
2008,05,29,15,25,16.90
2008,05,29,15,26,20.30
2008,05,29,15,27,21.20
2008,05,29,15,28,13.90
2008,05,29,15,29,16.20
2008,05,29,15,30,14.30
2008,05,29,15,31,15.70
2008,05,29,15,32,18.00
2008,05,29,15,33,15.40
2008,05,29,15,34,16.60
2008,05,29,15,35,10.60
2008,05,29,15,36,5.70
2008,05,29,15,37,20.80
2008,05,29,15,38,13.30
2008,05,29,15,39,14.40
2008,05,29,15,40,17.20
2008,05,29,15,41,20.80
2008,05,29,15,42,10.60
2008,05,29,15,43,18.90
2008,05,29,15,44,19.80
2008,05,29,15,45,15.90
2008,05,29,15,46,19.20
2008,05,29,15,47,23.30
2008,05,29,15,48,16.40
2008,05,29,15,49,17.30
2008,05,29,15,50,17.40
2008,05,29,15,51,16.70
2008,05,29,15,52,16.40
2008,05,29,15,53,22.90
2008,05,29,15,54,19.70
2008,05,29,15,55,16.50
2008,05,29,15,56,17.10
2008,05,29,15,57,14.20
2008,05,29,15,58,16.70
2008,05,29,15,59,9.30
2008,05,29,16,00,13.50
2008,05,29,16,01,15.50
2008,05,29,16,02,14.60
2008,05,29,16,03,11.00
2008,05,29,16,04,15.10
2008,05,29,16,05,12.30
2008,05,29,16,06,10.50
2008,05,29,16,07,14.60
2008,05,29,16,08,18.40
2008,05,29,16,09,14.50
2008,05,29,16,10,17.60
2008,05,29,16,11,10.40
2008,05,29,16,12,19.20
2008,05,29,16,13,12.30
2008,05,29,16,14,10.70
2008,05,29,16,15,25.20
2008,05,29,16,16,20.50
2008,05,29,16,17,19.80
2008,05,29,16,18,19.60
2008,05,29,16,19,16.40
2008,05,29,16,20,13.00
2008,05,29,16,21,12.20
2008,05,29,16,22,13.10
2008,05,29,16,23,11.40
2008,05,29,16,24,20.00
2008,05,29,16,25,21.50
2008,05,29,16,26,16.70
2008,05,29,16,27,13.80
2008,05,29,16,28,17.10
2008,05,29,16,29,16.30
2008,05,29,16,30,12.70
2008,05,29,16,31,21.80
2008,05,29,16,32,19.30
2008,05,29,16,33,19.60
2008,05,29,16,34,16.20
2008,05,29,16,35,21.70
2008,05,29,16,36,14.20
2008,05,29,16,37,17.10
2008,05,29,16,38,13.70
2008,05,29,16,39,18.30
2008,05,29,16,40,18.90
2008,05,29,16,41,17.50
2008,05,29,16,42,18.10
2008,05,29,16,43,10.40
2008,05,29,16,44,11.70
2008,05,29,16,45,10.60
2008,05,29,16,46,20.50
2008,05,29,16,47,22.20
2008,05,29,16,48,22.50
2008,05,29,16,49,13.60
2008,05,29,16,50,12.60
2008,05,29,16,51,10.60
2008,05,29,16,52,8.60
2008,05,29,16,53,11.90
2008,05,29,16,54,14.70
2008,05,29,16,55,13.30
2008,05,29,16,56,22.80
2008,05,29,16,57,17.50
2008,05,29,16,58,17.80
2008,05,29,16,59,14.20
2008,05,29,17,00,17.70
2008,05,29,17,01,19.00
2008,05,29,17,02,19.00
2008,05,29,17,03,20.70
2008,05,29,17,04,14.10
2008,05,29,17,05,14.10
2008,05,29,17,06,16.60
2008,05,29,17,07,8.90
2008,05,29,17,08,10.10
2008,05,29,17,09,14.00
2008,05,29,17,10,13.60
2008,05,29,17,11,14.60
2008,05,29,17,12,10.40
2008,05,29,17,13,17.30
2008,05,29,17,14,14.50
2008,05,29,17,15,12.80
2008,05,29,17,16,20.40
2008,05,29,17,17,14.90
2008,05,29,17,18,15.00
2008,05,29,17,19,13.60
2008,05,29,17,20,21.90
2008,05,29,17,21,19.10
2008,05,29,17,22,19.70
2008,05,29,17,23,18.00
2008,05,29,17,24,19.60
2008,05,29,17,25,16.40
2008,05,29,17,26,13.60
2008,05,29,17,27,8.80
2008,05,29,17,28,12.70
2008,05,29,17,29,18.90
2008,05,29,17,30,11.70
2008,05,29,17,31,18.30
2008,05,29,17,32,18.20
2008,05,29,17,33,17.40
2008,05,29,17,34,15.80
2008,05,29,17,35,18.30
2008,05,29,17,36,16.00